Terug naar catalogus

STARLINK-37521

ActiefCommunicatieVLEO
NORAD 69822·PAYLOAD·🇺🇸 United States

Gelanceerd Jul 5, 2026 vanaf Cape Canaveral Space Force Station

Loading…

Volgende Passages (komende 24 uur)

TLE

VersSource: CelesTrak SupGP

Epoch: Sep 15, 2026, 04:15 UTC

1 69822C 26154D   26258.17756944  .00075261  00000+0  22237-2 0  2587
2 69822  53.1588 356.5614 0001214  94.4867 194.0280 15.34351253    12

Volg STARLINK-37521 in realtime met AllMySat

Download on the App Store